Flag for Mozambique Weather past 2 weeks in Nampula, Mozambique

Now
75 °F

Passing clouds.


Feels Like: 78 °F
Forecast: 58 / 79 °F
Wind: 3 mph from Southeast

Location: Nampula Airport

Current Time: Jul 24, 2014 at 7:01:45 PM

Latest Report: Jul 24, 2014 at 6:00 PM


Visibility: N/A

Pressure: 30.12 "Hg

Humidity: 57%

Dew point: 59 °F

Location of NampulaLocation

Historic Weather in Nampula — Graph

°F

Nampula temperature yesterday

Maximum temperature yesterday: 75 °F (at 1:00 PM)
Minimum temperature yesterday: 61 °F (at 7:00 AM)
Average temperature yesterday: 68 °F

Past Weeks' High & Low Weather Summary

 TemperatureHumidityPressure
High84 °F (Jul 19, 2:00 PM)100% (Jul 10, 4:00 AM)30.33 "Hg (Jul 10, 4:00 AM)
Low59 °F (Jul 12, 2:00 AM)45% (Jul 19, 2:00 PM)30.04 "Hg (Jul 18, 2:00 PM)
Average71 °F77%30.16 "Hg
* Reported Jul 10 4:00 AM — Jul 24 6:00 PM, Nampula, Weather by CustomWeather, © 2014

Note: Actual official high and low records may vary slightly from our data, if they occured in-between our weather recording intervals... More about our weather records

Advertising

Nampula weather history for previous 24 hours

 ConditionsComfort  
Time TempWeatherWind HumidityBarometerVisibility
6:00 PM
Jul 24
75 °FPassing clouds.3 mph57%30.12 "HgN/A
5:00 PM75 °FPartly sunny.5 mph54%30.09 "HgN/A
4:00 PM77 °FPartly sunny.3 mph51%30.12 "HgN/A
3:00 PM77 °FPartly sunny.7 mph51%30.12 "HgN/A
2:00 PM79 °FPartly sunny.6 mph48%30.15 "HgN/A
12:00 PM75 °FPartly sunny.N/A61%30.18 "HgN/A
11:00 AM72 °FPartly sunny.N/A69%30.18 "HgN/A
10:00 AM70 °FPartly sunny.N/A78%30.21 "HgN/A
9:00 AM68 °FPartly sunny.N/A83%30.21 "HgN/A
8:00 AM64 °FPassing clouds.N/A88%30.18 "HgN/A
7:00 AM63 °FPassing clouds.N/A88%30.15 "HgN/A
6:00 AM61 °FPassing clouds.N/A100%30.12 "HgN/A
5:00 AM61 °FClear.N/A100%30.12 "Hg10 mi
2:00 AM63 °FClear.N/A94%30.15 "Hg10 mi
1:00 AM63 °FClear.N/A94%30.15 "Hg10 mi
11:00 PM
Jul 23
64 °FClear.N/A94%30.18 "Hg10 mi
10:00 PM64 °FClear.N/A94%30.18 "Hg10 mi
9:00 PM66 °FPassing clouds.N/A88%30.18 "HgN/A
8:00 PM66 °FPassing clouds.N/A88%30.15 "HgN/A
7:00 PM68 °FPassing clouds.N/A83%30.15 "HgN/A
Weather by CustomWeather, © 2014

See weather overviewHow to use our weather pages